Weather in Bohuslavka

Ukraine / Kharkiv Region     49°28′22″N   37°41′19″E
temp.,
°C
wind,
m/s
gust,
m/s
humid.,
%
clouds,
%
prec.,
mm/h
press.,
hPa
HPBL,
m
9 may, sun
sun900:00+7wnw81295100 7.1 1010538
03:00+6nw6992100 10.2 1012749
06:00+5nw71187100 0.1 10121051
09:00+7nw81176100 0.2 10151226
12:00+8nw81167100 0.1 10161375
15:00+11nnw9105297 0.1 10172038
18:00+10nnw610636 0.1 10191811
21:00+6nw387796 0.1 1021174
10 may, mon
mon1000:00+5nw410835 0.0 1022231
03:00+4nw412826 0.0 1023297
06:00+4nnw412785 0.0 1023357
09:00+10nnw8135996 0.0 10221573
12:00+13nnw101345100 0.0 10212385
15:00+12n81356100 0.0 10191944
18:00+11nnw101657100 0.0 10171502
21:00+8nnw111880100 0.4 10141047
11 may, tue
tue1100:00+9n101992100 0.8 10121167
03:00+9ne71394100 1.9 1013880
06:00+8ene51092100 0.8 1014683
09:00+7ene599167 1.6 1015676
12:00+10ene81166100 0.1 10151474
15:00+11ene11137190 0.5 10161481
18:00+7ene91388100 0.3 10161291
21:00+7ese101690100 0.8 1018927
12 may, wed
wed1200:00+8ese91687100 0.3 10191114
03:00+8e61192100 0.6 1019866
06:00+8e71391100 0.6 1019816
09:00+8ese5995100 1.7 1019726
12:00+12ese6872100 0.4 10171280
15:00+11se5107899 0.8 1017932
18:00+11se7128254 0.9 1017647
21:00+10se5128811 1.1 1016316
13 may, thu
thu1300:00+9ese359497 0.1 1017116
03:00+9se229391 0.1 101733
06:00+10ese22918 0.0 101755
09:00+16se45735 0.0 1017532
12:00+20se465552 0.0 10161320
15:00+22ese574976 0.0 10151685
18:00+20ese5962100 0.0 1015516
21:00+15e498099 0.0 1015141